Date Time,Air Temp,Sky Temp,Clarity,Light Level,Rain Sensor,Readings
2021-07-31 00:00:13,20.7,6.8,13.9,0.0,-4.5,112
2021-07-31 00:05:13,20.7,6.2,14.5,0.0,-4.5,111
2021-07-31 00:10:13,20.7,9.3,11.4,0.0,-4.5,112
2021-07-31 00:15:13,20.8,5.8,14.9,0.0,-4.7,111
2021-07-31 00:20:13,20.7,3.9,16.8,0.0,-4.7,112
2021-07-31 00:25:13,20.7,6.8,13.8,0.0,-4.7,111
2021-07-31 00:30:13,20.7,8.4,12.3,0.0,-4.7,111
2021-07-31 00:35:13,20.8,9.5,11.2,0.0,-4.8,112
2021-07-31 00:40:13,20.8,9.3,11.6,0.0,-4.8,111
2021-07-31 00:45:13,20.9,9.1,11.7,0.0,-4.8,112
2021-07-31 00:50:13,20.8,9.2,11.6,0.0,-4.8,111
2021-07-31 00:55:13,20.8,8.9,11.9,0.0,-4.8,112
2021-07-31 01:00:13,20.9,8.5,12.4,0.0,-4.8,111
2021-07-31 01:05:21,20.4,4.2,16.2,0.0,-4.8,112
2021-07-31 01:10:21,20.7,4.9,15.8,0.0,-4.8,111
2021-07-31 01:15:21,21.3,0.4,20.9,0.0,-4.6,111
2021-07-31 01:20:21,23.8,1.6,22.2,0.0,-5.4,112
2021-07-31 01:25:21,22.5,7.1,15.5,0.0,-5.9,111
2021-07-31 01:30:21,21.2,7.7,13.5,0.0,-5.5,111
2021-07-31 01:35:21,20.9,8.1,12.8,0.0,-5.0,111
2021-07-31 01:40:21,20.8,7.7,13.1,0.0,-4.9,112
2021-07-31 01:45:21,20.7,8.1,12.6,0.0,-4.9,111
2021-07-31 01:50:21,20.7,8.5,12.2,0.0,-4.9,111
2021-07-31 01:55:21,20.7,8.4,12.3,0.0,-4.9,112
2021-07-31 02:00:21,20.7,8.5,12.2,0.0,-4.9,112
2021-07-31 02:05:21,20.8,8.4,12.3,0.0,-5.0,111
2021-07-31 02:10:21,20.8,8.1,12.7,0.0,-5.0,112
2021-07-31 02:15:21,20.8,8.2,12.6,0.0,-5.0,111
2021-07-31 02:20:21,20.8,8.3,12.6,0.0,-5.1,112
2021-07-31 02:25:21,20.8,8.1,12.7,0.0,-5.1,111
2021-07-31 02:30:21,20.8,8.2,12.6,0.0,-5.2,112
2021-07-31 02:35:21,20.8,9.8,11.0,0.0,-5.1,111
2021-07-31 02:40:21,20.9,10.8,10.0,0.0,-5.1,112
2021-07-31 02:45:21,20.9,10.6,10.3,0.0,-5.1,111
2021-07-31 02:50:21,20.9,10.5,10.5,0.0,-5.2,112
2021-07-31 02:55:21,20.9,10.0,11.0,0.0,-5.3,112
2021-07-31 03:00:21,20.9,9.8,11.1,0.0,-5.2,111
2021-07-31 03:05:21,20.9,10.3,10.6,0.0,-5.3,112
2021-07-31 03:10:21,20.9,10.2,10.7,0.0,-5.5,111
2021-07-31 03:15:21,20.9,10.7,10.3,0.0,-5.5,112
2021-07-31 03:20:21,20.9,9.6,11.2,0.0,-5.4,112
2021-07-31 03:25:21,20.8,8.2,12.6,0.0,-5.2,111
2021-07-31 03:30:21,20.8,5.4,15.3,0.0,-5.2,112
2021-07-31 03:35:21,22.0,0.0,21.9,0.0,-5.2,111
2021-07-31 03:40:21,24.1,-0.8,24.9,0.0,-5.7,112
2021-07-31 03:45:21,24.6,1.1,23.5,0.0,-5.6,111
2021-07-31 03:50:21,23.8,3.9,19.9,0.0,-5.7,111
2021-07-31 03:55:21,23.2,2.6,20.6,0.0,-5.9,112
2021-07-31 04:00:21,22.0,4.0,18.0,0.0,-6.1,112
2021-07-31 04:05:21,21.2,3.8,17.4,0.0,-6.1,111
2021-07-31 04:10:21,20.7,4.7,16.0,0.0,-5.4,112
2021-07-31 04:15:21,21.2,0.0,21.2,0.0,-5.0,111
2021-07-31 04:20:21,23.6,-3.1,26.7,0.1,-5.8,112
2021-07-31 04:25:21,24.2,-2.5,26.7,0.1,-5.9,112
2021-07-31 04:30:21,24.4,-0.6,25.0,0.3,-5.8,111
2021-07-31 04:35:21,24.5,0.3,24.1,0.5,-5.7,112
2021-07-31 04:40:21,24.5,-0.8,25.3,0.9,-5.7,112
2021-07-31 04:45:21,24.5,-3.0,27.5,1.5,-5.7,112
2021-07-31 04:50:21,24.4,-4.1,28.5,2.7,-5.8,112
2021-07-31 04:55:21,24.3,-4.2,28.5,4.9,-5.8,112
2021-07-31 05:00:21,24.2,-4.2,28.4,8.2,-5.9,112
2021-07-31 05:05:21,24.1,-4.1,28.2,12.5,-5.9,111
2021-07-31 05:10:21,24.0,-3.8,27.8,17.2,-6.0,112
2021-07-31 05:15:21,24.0,-3.3,27.3,21.3,-6.0,112
2021-07-31 05:20:21,24.0,-2.1,26.2,24.6,-6.0,111
2021-07-31 05:25:21,23.7,-2.1,25.8,26.9,-6.0,112
2021-07-31 05:30:21,24.2,-1.2,25.4,28.3,-6.0,111
2021-07-31 05:35:21,24.3,1.2,23.1,29.2,-6.0,111
2021-07-31 05:40:21,24.0,3.8,20.1,30.0,-6.0,112
2021-07-31 05:45:21,21.5,4.1,17.3,30.6,-6.4,111
2021-07-31 05:50:21,20.4,1.6,18.8,30.9,-5.6,111
2021-07-31 05:55:21,20.0,1.0,19.0,31.2,-5.1,111
2021-07-31 06:00:21,19.8,2.6,17.2,31.5,-4.7,111
2021-07-31 06:05:06,19.7,1.3,18.4,31.7,-4.7,47
2021-07-31 06:10:06,19.7,1.4,18.3,31.8,-4.8,111
2021-07-31 06:15:06,19.8,4.6,15.2,32.0,-4.7,112
2021-07-31 06:20:06,19.9,5.7,14.2,32.1,-4.8,112
2021-07-31 06:25:06,20.1,5.9,14.2,32.2,-5.1,111
2021-07-31 06:30:06,20.3,5.4,14.9,32.2,-5.4,111
2021-07-31 06:35:06,20.4,4.2,16.2,32.2,-5.4,112
2021-07-31 06:40:06,20.6,2.3,18.3,32.2,-5.9,111
2021-07-31 06:45:06,20.6,1.6,19.0,32.2,-5.9,111
2021-07-31 06:50:06,20.6,1.6,19.1,32.2,-6.1,111
2021-07-31 06:55:06,20.7,2.3,18.4,32.2,-6.3,111
2021-07-31 07:00:06,20.8,2.6,18.2,32.3,-6.5,111
2021-07-31 07:05:06,21.0,2.7,18.3,32.3,-6.5,111
2021-07-31 07:10:06,21.3,2.8,18.6,32.3,-6.6,112
2021-07-31 07:15:06,21.4,3.9,17.5,32.3,-6.5,111
2021-07-31 07:20:06,21.7,4.2,17.5,32.3,-6.3,111
2021-07-31 07:25:06,21.9,8.5,13.4,32.3,-6.1,112
2021-07-31 07:30:06,21.8,8.5,13.3,32.3,-6.1,111
2021-07-31 07:35:06,21.8,10.3,11.5,32.3,-6.1,112
2021-07-31 07:40:06,21.9,10.1,11.8,32.4,-6.2,111
2021-07-31 07:45:06,22.0,10.5,11.6,32.4,-6.0,112
2021-07-31 07:50:06,22.3,11.7,10.6,32.5,-5.9,111
2021-07-31 07:55:06,22.6,10.9,11.7,32.4,-5.7,112
2021-07-31 08:00:06,22.8,10.9,11.9,32.5,-5.5,111
2021-07-31 08:05:06,22.5,10.4,12.1,32.5,-5.4,111
2021-07-31 08:10:06,22.9,9.3,13.6,32.5,-5.3,111
2021-07-31 08:15:06,23.0,11.1,11.9,32.5,-5.4,112
2021-07-31 08:20:06,23.2,11.2,12.0,32.4,-5.3,111
2021-07-31 08:25:06,23.0,11.3,11.8,32.4,-5.3,111
2021-07-31 08:30:06,22.9,11.4,11.5,32.5,-5.3,112
2021-07-31 08:35:06,23.1,11.2,11.9,32.5,-5.2,111
2021-07-31 08:40:06,23.2,11.8,11.4,32.4,-5.2,111
2021-07-31 08:45:06,23.2,12.1,11.0,32.3,-5.1,111
2021-07-31 08:50:06,22.9,11.6,11.4,32.3,-5.2,111
2021-07-31 08:55:06,22.7,11.1,11.6,32.4,-5.3,112
2021-07-31 09:00:06,22.6,9.2,13.4,32.5,-5.4,111
2021-07-31 09:05:06,22.9,9.8,13.2,32.5,-5.3,112
2021-07-31 09:10:06,23.4,8.1,15.3,32.5,-5.0,111
2021-07-31 09:15:06,23.7,7.0,16.7,32.5,-4.9,112
2021-07-31 09:20:06,23.8,7.1,16.7,32.5,-4.8,111
2021-07-31 09:25:06,23.9,8.5,15.4,32.5,-4.8,112
2021-07-31 09:30:06,24.0,9.0,15.0,32.5,-4.8,111
2021-07-31 09:35:06,24.0,7.2,16.8,32.5,-4.8,112
2021-07-31 09:40:06,24.2,11.6,12.6,32.5,-4.7,111
2021-07-31 09:45:06,24.5,5.9,18.6,32.5,-4.5,111
2021-07-31 09:50:06,26.9,4.0,22.8,32.5,-4.8,111
2021-07-31 09:55:06,27.2,6.5,20.7,32.5,-5.0,112
2021-07-31 10:00:06,27.7,9.6,18.1,32.5,-5.1,112
2021-07-31 10:05:06,26.6,11.0,15.6,32.5,-5.1,111
2021-07-31 10:10:06,26.0,9.4,16.6,32.5,-5.1,112
2021-07-31 10:15:06,25.5,9.4,16.1,32.5,-5.1,111
2021-07-31 10:20:06,25.4,11.6,13.8,32.5,-5.0,111
2021-07-31 10:25:06,25.1,9.3,15.8,32.5,-5.1,112
2021-07-31 10:30:06,24.8,9.0,15.8,32.5,-4.7,111
2021-07-31 10:35:06,25.0,11.7,13.3,32.5,-4.8,111
2021-07-31 10:40:06,25.9,13.3,12.6,32.5,-5.2,112
2021-07-31 10:45:06,26.0,12.4,13.7,32.5,-5.2,111
2021-07-31 10:50:06,25.7,12.5,13.2,32.5,-5.2,111
2021-07-31 10:55:06,25.2,11.7,13.5,32.5,-5.2,112
2021-07-31 11:00:06,24.9,10.3,14.6,32.5,-5.2,111
2021-07-31 11:05:06,24.8,9.3,15.5,32.5,-5.2,112
2021-07-31 11:10:06,25.1,10.9,14.2,32.5,-5.2,112
2021-07-31 11:15:06,25.3,12.5,12.8,32.5,-5.2,111
2021-07-31 11:20:06,25.2,11.5,13.7,32.5,-5.2,111
2021-07-31 11:25:06,24.8,11.0,13.8,32.4,-5.2,112
2021-07-31 11:30:06,24.5,10.4,14.1,32.5,-4.9,111
2021-07-31 11:35:06,24.3,8.8,15.5,32.5,-4.6,112
2021-07-31 11:40:06,24.5,8.5,16.1,32.5,-4.7,111
2021-07-31 11:45:06,25.1,9.9,15.2,32.5,-5.2,111
2021-07-31 11:50:06,25.6,9.2,16.4,32.5,-5.2,111
2021-07-31 11:55:06,26.5,13.8,12.7,32.5,-5.2,111
2021-07-31 12:00:06,26.5,10.7,15.9,32.5,-5.2,112
2021-07-31 12:05:06,26.4,12.7,13.8,32.6,-5.2,111
2021-07-31 12:10:06,27.2,12.4,14.8,32.5,-5.3,111
2021-07-31 12:15:06,27.0,10.4,16.6,32.5,-5.3,111
2021-07-31 12:20:06,27.5,13.8,13.7,32.5,-5.3,112
2021-07-31 12:25:06,26.8,10.5,16.3,32.5,-5.2,111
2021-07-31 12:30:06,25.6,10.7,14.9,32.4,-5.3,112
2021-07-31 12:35:06,24.8,10.7,14.1,32.4,-5.2,111
2021-07-31 12:40:06,24.4,11.0,13.4,32.4,-5.0,112
2021-07-31 12:45:06,24.1,11.0,13.1,32.4,-5.0,111
2021-07-31 12:50:06,24.1,11.5,12.6,32.5,-4.9,111
2021-07-31 12:55:06,24.2,11.1,13.1,32.5,-5.0,112
2021-07-31 13:00:06,24.4,11.4,13.0,32.5,-5.2,111
2021-07-31 13:05:06,24.6,11.3,13.4,32.5,-5.2,112
2021-07-31 13:10:06,25.1,10.8,14.4,32.6,-5.2,111
2021-07-31 13:15:06,25.9,11.0,14.9,32.6,-5.3,112
2021-07-31 13:20:06,26.5,10.7,15.8,32.6,-5.3,111
2021-07-31 13:25:06,27.0,15.9,11.1,32.6,-5.2,112
2021-07-31 13:30:06,27.7,13.0,14.8,32.5,-5.3,111
2021-07-31 13:35:06,27.0,12.1,14.9,32.5,-5.4,112
2021-07-31 13:40:06,26.6,10.8,15.8,32.6,-5.5,111
2021-07-31 13:45:06,27.1,11.9,15.2,32.6,-5.4,112
2021-07-31 13:50:07,27.6,11.9,15.7,32.6,-5.4,111
2021-07-31 13:55:07,27.5,12.9,14.6,32.5,-5.4,112
2021-07-31 14:00:07,26.8,12.5,14.3,32.5,-5.6,112
2021-07-31 14:05:07,26.3,13.7,12.6,32.5,-5.4,111
2021-07-31 14:10:07,26.5,13.2,13.3,32.6,-5.5,111
2021-07-31 14:15:07,26.2,12.1,14.0,32.6,-5.5,111
2021-07-31 14:20:07,27.0,11.2,15.8,32.6,-5.5,112
2021-07-31 14:25:07,28.6,10.1,18.5,32.6,-5.4,111
2021-07-31 14:30:07,29.6,9.2,20.4,32.6,-5.3,111
2021-07-31 14:35:07,29.8,10.6,19.2,32.6,-5.6,112
2021-07-31 14:40:07,30.6,12.3,18.3,32.6,-5.4,112
2021-07-31 14:45:07,28.6,11.2,17.5,32.5,-5.2,111
2021-07-31 14:50:07,26.8,10.3,16.5,32.5,-0.4,111
2021-07-31 14:55:07,25.2,11.1,14.0,32.6,-5.3,111
2021-07-31 15:00:07,25.2,11.7,13.6,32.6,-5.6,112
2021-07-31 15:05:07,25.5,11.5,14.0,32.5,-5.7,111
2021-07-31 15:10:07,25.6,11.5,14.0,32.6,-5.7,111
2021-07-31 15:15:07,25.8,12.1,13.7,32.6,-5.7,111
2021-07-31 15:20:07,26.6,15.2,11.4,32.6,-5.6,112
2021-07-31 15:25:07,27.8,12.5,15.4,32.6,-5.7,111
2021-07-31 15:30:07,28.6,12.1,16.5,32.6,-5.4,111
2021-07-31 15:35:07,29.9,8.2,21.8,32.5,-5.6,112
2021-07-31 15:40:07,29.2,11.5,17.7,32.4,-5.7,111
2021-07-31 15:45:07,26.3,11.3,15.1,32.3,-3.3,111
2021-07-31 15:50:07,24.7,11.5,13.2,32.3,15.3,111
2021-07-31 15:55:07,23.5,13.5,10.0,32.4,-3.5,111
2021-07-31 16:00:07,22.9,12.1,10.8,32.4,-4.8,112
2021-07-31 16:05:07,23.1,11.7,11.4,32.5,-4.8,111
2021-07-31 16:10:07,23.8,13.1,10.7,32.6,-5.1,112
2021-07-31 16:15:07,25.3,13.4,11.8,32.6,-5.4,112
2021-07-31 16:20:07,27.0,11.9,15.1,32.6,-5.6,111
2021-07-31 16:25:07,28.0,11.1,17.0,32.6,-5.6,111
2021-07-31 16:30:07,28.2,10.6,17.6,32.6,-5.6,112
2021-07-31 16:35:07,28.4,10.4,18.0,32.6,-5.3,112
2021-07-31 16:40:07,28.6,11.3,17.3,32.6,-5.7,111
2021-07-31 16:45:07,28.7,11.5,17.2,32.6,-5.7,111
2021-07-31 16:50:07,28.9,9.8,19.1,32.6,-5.7,111
2021-07-31 16:55:07,30.4,7.5,23.0,32.6,-5.7,111
2021-07-31 17:00:07,29.5,11.7,17.8,32.6,-5.7,112
2021-07-31 17:05:07,28.7,9.5,19.2,32.6,-5.7,111
2021-07-31 17:10:07,30.8,7.3,23.6,32.6,-5.9,112
2021-07-31 17:15:07,31.5,4.5,27.0,32.6,-6.1,111
2021-07-31 17:20:07,31.0,3.8,27.2,32.5,-5.9,111
2021-07-31 17:25:07,30.3,4.6,25.8,32.5,-5.7,112
2021-07-31 17:30:07,29.8,9.4,20.3,32.6,-5.8,111
2021-07-31 17:35:07,28.0,10.2,17.8,32.6,-5.7,112
2021-07-31 17:40:07,27.9,5.2,22.8,32.5,-5.8,111
2021-07-31 17:45:07,28.8,4.2,24.6,32.5,-5.8,112
2021-07-31 17:50:07,28.5,6.6,21.9,32.5,-5.8,111
2021-07-31 17:55:07,26.1,9.6,16.5,32.5,-5.8,112
2021-07-31 18:00:07,24.5,10.1,14.4,32.5,-5.8,112
2021-07-31 18:05:07,24.1,10.6,13.6,32.5,-5.8,111
2021-07-31 18:10:07,24.1,10.2,13.9,32.5,-5.8,112
2021-07-31 18:15:07,24.2,10.8,13.4,32.5,-5.8,112
2021-07-31 18:20:07,24.0,10.0,14.0,32.5,-5.8,111
2021-07-31 18:25:07,24.8,11.4,13.4,32.6,-5.8,112
2021-07-31 18:30:07,25.4,8.6,16.8,32.6,-5.9,111
2021-07-31 18:35:07,28.0,2.8,25.2,32.5,-6.0,111
2021-07-31 18:40:07,29.2,2.1,27.1,32.5,-6.0,111
2021-07-31 18:45:07,29.4,3.7,25.7,32.5,-5.8,111
2021-07-31 18:50:07,27.7,7.0,20.7,32.5,-6.2,112
2021-07-31 18:55:07,28.5,1.9,26.6,32.4,-6.2,111
2021-07-31 19:00:07,28.4,1.4,26.9,32.4,-6.2,111
2021-07-31 19:05:07,28.2,1.7,26.5,32.5,-6.2,111
2021-07-31 19:10:07,28.2,0.7,27.5,32.5,-6.2,111
2021-07-31 19:15:07,28.4,1.9,26.5,32.5,-6.2,111
2021-07-31 19:20:07,28.7,0.7,28.0,32.5,-6.2,112
2021-07-31 19:25:07,28.5,-0.2,28.7,32.4,-6.2,111
2021-07-31 19:30:07,28.2,0.2,28.0,32.4,-6.2,112
2021-07-31 19:35:07,28.1,0.3,27.9,32.4,-6.2,111
2021-07-31 19:40:07,28.1,1.2,26.9,32.5,-6.2,111
2021-07-31 19:45:07,28.0,0.5,27.5,32.3,-6.1,111
2021-07-31 19:50:07,27.5,1.1,26.5,32.2,-6.3,111
2021-07-31 19:55:07,27.3,2.3,25.0,32.2,-6.3,112
2021-07-31 20:00:07,27.1,3.7,23.5,32.2,-6.4,111
2021-07-31 20:05:07,27.1,5.2,21.9,32.1,-6.3,112
2021-07-31 20:10:07,27.0,5.5,21.6,32.0,-6.3,111
2021-07-31 20:15:07,26.3,7.1,19.2,32.0,-6.0,112
2021-07-31 20:20:07,23.7,8.6,15.1,31.9,-6.4,111
2021-07-31 20:25:07,22.9,8.2,14.7,31.7,-6.3,112
2021-07-31 20:30:07,22.6,7.5,15.1,31.7,-6.3,111
2021-07-31 20:35:07,22.4,7.6,14.8,31.4,-6.1,112
2021-07-31 20:40:07,22.3,7.4,14.9,31.2,-5.9,111
2021-07-31 20:45:07,22.2,7.4,14.8,30.6,-5.9,112
2021-07-31 20:50:07,22.1,7.4,14.8,29.8,-5.9,111
2021-07-31 20:55:07,22.1,7.3,14.7,28.7,-5.9,112
2021-07-31 21:00:07,22.0,7.4,14.6,26.9,-6.0,111
2021-07-31 21:05:07,21.9,7.3,14.7,23.8,-6.0,112
2021-07-31 21:10:07,21.9,7.3,14.5,19.9,-6.0,111
2021-07-31 21:15:07,21.8,7.4,14.5,15.0,-6.1,112
2021-07-31 21:20:07,21.8,7.5,14.4,10.2,-6.1,111
2021-07-31 21:25:07,21.8,7.5,14.3,6.4,-6.1,112
2021-07-31 21:30:07,21.8,7.7,14.0,3.9,-6.1,111
2021-07-31 21:35:07,21.8,7.6,14.2,2.3,-6.2,112
2021-07-31 21:40:07,21.7,7.5,14.3,1.4,-6.2,112
2021-07-31 21:45:07,21.7,7.4,14.2,0.8,-6.2,111
2021-07-31 21:50:07,21.7,7.2,14.4,0.5,-6.2,112
2021-07-31 21:55:07,21.7,7.0,14.7,0.3,-6.2,111
2021-07-31 22:00:07,21.7,6.9,14.7,0.2,-6.3,112
2021-07-31 22:05:07,21.6,6.9,14.7,0.1,-6.3,111
2021-07-31 22:10:07,21.6,6.8,14.8,0.0,-6.3,111
2021-07-31 22:15:07,21.6,6.8,14.8,0.0,-6.4,111
2021-07-31 22:20:07,21.5,6.9,14.6,0.0,-6.4,111
2021-07-31 22:25:07,21.5,7.1,14.4,0.0,-6.5,112
2021-07-31 22:30:07,21.5,7.0,14.5,0.0,-6.5,111
2021-07-31 22:35:07,21.4,6.9,14.6,0.0,-6.5,111
2021-07-31 22:40:07,21.4,6.3,15.1,0.0,-6.5,112
2021-07-31 22:45:07,21.4,5.3,16.1,0.0,-6.6,112
2021-07-31 22:50:07,21.3,5.2,16.2,0.0,-6.6,111
2021-07-31 22:55:07,21.3,5.3,16.0,0.0,-6.6,112
2021-07-31 23:00:07,21.3,5.3,16.0,0.0,-6.6,112
2021-07-31 23:05:07,21.3,5.0,16.3,0.0,-6.7,111
2021-07-31 23:10:07,21.2,4.9,16.4,0.0,-6.7,112
2021-07-31 23:15:07,21.2,5.1,16.0,0.0,-6.7,112
2021-07-31 23:20:07,21.1,5.6,15.5,0.0,-6.7,112
2021-07-31 23:25:07,21.1,5.8,15.3,0.0,-6.7,111
2021-07-31 23:30:07,21.1,5.8,15.4,0.0,-6.7,112
2021-07-31 23:35:07,21.1,5.9,15.2,0.0,-6.7,112
2021-07-31 23:40:07,21.1,5.5,15.6,0.0,-6.7,111
2021-07-31 23:45:07,21.1,5.5,15.6,0.0,-6.7,112
2021-07-31 23:50:07,21.1,5.4,15.6,0.0,-6.8,111
2021-07-31 23:55:07,21.0,5.6,15.4,0.0,-6.8,112
